Meteo pe oră la Dziemianowka

Astăzi, 7 Martie, Duminică

Timp Temperatura Precipitaţii Vânt Presiune Umiditate
00:00 -3°C° 0 mm 7 m/s 749 mmHg 70%
01:00 -4°C° 0 mm 8 m/s 749 mmHg 76%
02:00 -2°C° 0 mm 8 m/s 748 mmHg 82%
03:00 -2°C° 0.1 mm 8 m/s 747 mmHg 86%
04:00 -4°C° 0.1 mm 9 m/s 746 mmHg 89%
05:00 -4°C° 0.1 mm 9 m/s 745 mmHg 93%
06:00 -4°C° 0.3 mm 9 m/s 745 mmHg 93%
07:00 -4°C° 0.3 mm 9 m/s 744 mmHg 93%
08:00 -3°C° 0.3 mm 9 m/s 744 mmHg 94%
09:00 -4°C° 0.5 mm 8 m/s 744 mmHg 94%
10:00 -3°C° 0.5 mm 7 m/s 744 mmHg 94%
11:00 -3°C° 0.5 mm 6 m/s 744 mmHg 95%
12:00 -3°C° 0.7 mm 6 m/s 744 mmHg 93%
13:00 -2°C° 0.7 mm 5 m/s 744 mmHg 90%
14:00 -2°C° 0.7 mm 5 m/s 744 mmHg 88%
15:00 -2°C° 0.2 mm 5 m/s 744 mmHg 85%
16:00 -2°C° 0.2 mm 5 m/s 744 mmHg 81%
17:00 -2°C° 0.2 mm 5 m/s 744 mmHg 77%
18:00 -4°C° 0 mm 5 m/s 744 mmHg 77%
19:00 -4°C° 0 mm 4 m/s 744 mmHg 77%
20:00 -4°C° 0 mm 4 m/s 745 mmHg 77%
21:00 -5°C° 0 mm 4 m/s 745 mmHg 76%
22:00 -5°C° 0 mm 4 m/s 745 mmHg 75%
23:00 -7°C° 0 mm 4 m/s 745 mmHg 75%

Mâine, 8 Martie, Luni

Timp Temperatura Precipitaţii Vânt Presiune Umiditate
00:00 -7°C° 0 mm 4 m/s 745 mmHg 77%
01:00 -7°C° 0 mm 5 m/s 746 mmHg 80%
02:00 -6°C° 0 mm 5 m/s 746 mmHg 82%
03:00 -6°C° 0 mm 5 m/s 746 mmHg 82%
04:00 -6°C° 0 mm 5 m/s 746 mmHg 81%
05:00 -5°C° 0 mm 4 m/s 746 mmHg 81%
06:00 -5°C° 0.1 mm 4 m/s 746 mmHg 81%
07:00 -5°C° 0.1 mm 4 m/s 747 mmHg 81%
08:00 -5°C° 0.1 mm 4 m/s 747 mmHg 81%
09:00 -5°C° 0 mm 4 m/s 748 mmHg 76%
10:00 -4°C° 0 mm 4 m/s 748 mmHg 71%
11:00 -4°C° 0 mm 4 m/s 748 mmHg 66%
12:00 -4°C° 0 mm 4 m/s 749 mmHg 64%
13:00 -3°C° 0 mm 4 m/s 749 mmHg 63%
14:00 -3°C° 0 mm 4 m/s 749 mmHg 61%
15:00 -3°C° 0 mm 4 m/s 749 mmHg 65%
16:00 -3°C° 0 mm 4 m/s 749 mmHg 68%
17:00 -3°C° 0 mm 4 m/s 750 mmHg 72%
18:00 -4°C° 0.1 mm 4 m/s 750 mmHg 74%
19:00 -5°C° 0.1 mm 3 m/s 751 mmHg 77%
20:00 -5°C° 0.1 mm 3 m/s 751 mmHg 79%
21:00 -5°C° 0 mm 2 m/s 751 mmHg 80%
22:00 -5°C° 0 mm 2 m/s 752 mmHg 80%
23:00 -6°C° 0 mm 2 m/s 752 mmHg 81%

Poimâine, 9 Martie, Marţi

Timp Temperatura Precipitaţii Vânt Presiune Umiditate
00:00 -6°C° 0 mm 2 m/s 752 mmHg 80%
01:00 -6°C° 0 mm 2 m/s 753 mmHg 79%
02:00 -7°C° 0 mm 2 m/s 753 mmHg 78%
03:00 -7°C° 0 mm 2 m/s 753 mmHg 77%
04:00 -7°C° 0 mm 2 m/s 753 mmHg 76%
05:00 -7°C° 0 mm 2 m/s 753 mmHg 75%
06:00 -7°C° 0 mm 2 m/s 754 mmHg 76%
07:00 -7°C° 0 mm 2 m/s 754 mmHg 77%
08:00 -6°C° 0 mm 2 m/s 755 mmHg 78%
09:00 -6°C° 0 mm 2 m/s 755 mmHg 70%
10:00 -5°C° 0 mm 2 m/s 755 mmHg 62%
11:00 -2°C° 0 mm 1 m/s 755 mmHg 55%
12:00 -1°C° 0 mm 1 m/s 755 mmHg 52%
13:00 -1°C° 0 mm 1 m/s 755 mmHg 49%
14:00 0°C° 0 mm 1 m/s 755 mmHg 46%
15:00 0°C° 0 mm 1 m/s 755 mmHg 48%
16:00 0°C° 0 mm 1 m/s 755 mmHg 49%
17:00 0°C° 0 mm 1 m/s 754 mmHg 51%
18:00 -1°C° 0 mm 1 m/s 754 mmHg 57%
19:00 -4°C° 0 mm 2 m/s 755 mmHg 63%
20:00 -4°C° 0 mm 2 m/s 755 mmHg 69%
21:00 -5°C° 0 mm 2 m/s 755 mmHg 70%
22:00 -5°C° 0 mm 2 m/s 755 mmHg 71%
23:00 -5°C° 0 mm 2 m/s 755 mmHg 72%

10 Martie, Miercuri

Timp Temperatura Precipitaţii Vânt Presiune Umiditate
00:00 -5°C° 0 mm 2 m/s 755 mmHg 71%
01:00 -6°C° 0 mm 3 m/s 755 mmHg 70%
02:00 -6°C° 0 mm 3 m/s 755 mmHg 68%
03:00 -6°C° 0 mm 3 m/s 754 mmHg 66%
04:00 -6°C° 0 mm 3 m/s 754 mmHg 65%
05:00 -6°C° 0 mm 3 m/s 754 mmHg 63%
06:00 -6°C° 0 mm 3 m/s 754 mmHg 62%
07:00 -6°C° 0 mm 3 m/s 754 mmHg 62%
08:00 -7°C° 0 mm 4 m/s 754 mmHg 61%
09:00 -4°C° 0 mm 4 m/s 754 mmHg 59%
10:00 -3°C° 0 mm 4 m/s 754 mmHg 56%
11:00 -2°C° 0 mm 4 m/s 754 mmHg 53%
12:00 -1°C° 0 mm 4 m/s 754 mmHg 51%
13:00 -1°C° 0 mm 4 m/s 754 mmHg 49%
14:00 0°C° 0 mm 4 m/s 753 mmHg 47%
15:00 0°C° 0 mm 4 m/s 753 mmHg 49%
16:00 -1°C° 0 mm 4 m/s 753 mmHg 50%
17:00 0°C° 0 mm 3 m/s 753 mmHg 51%
18:00 -1°C° 0 mm 3 m/s 753 mmHg 54%
19:00 -2°C° 0 mm 3 m/s 753 mmHg 58%
20:00 -3°C° 0 mm 2 m/s 753 mmHg 61%
21:00 -4°C° 0 mm 3 m/s 753 mmHg 60%
22:00 -4°C° 0 mm 3 m/s 753 mmHg 58%
23:00 -4°C° 0 mm 3 m/s 753 mmHg 57%

11 Martie, Joi

Timp Temperatura Precipitaţii Vânt Presiune Umiditate
00:00 -4°C° 0 mm 3 m/s 752 mmHg 56%
01:00 -4°C° 0 mm 3 m/s 752 mmHg 55%
02:00 -4°C° 0 mm 3 m/s 751 mmHg 54%
03:00 -4°C° 0 mm 3 m/s 751 mmHg 55%
04:00 -4°C° 0 mm 4 m/s 750 mmHg 56%
05:00 -4°C° 0 mm 4 m/s 749 mmHg 56%
06:00 -4°C° 0 mm 4 m/s 749 mmHg 57%
07:00 -5°C° 0 mm 5 m/s 748 mmHg 57%
08:00 -4°C° 0 mm 5 m/s 747 mmHg 57%
09:00 -3°C° 0 mm 6 m/s 747 mmHg 56%
10:00 -3°C° 0 mm 6 m/s 746 mmHg 54%
11:00 -2°C° 0 mm 7 m/s 745 mmHg 53%
12:00 -2°C° 0.1 mm 7 m/s 744 mmHg 62%
13:00 -2°C° 0.1 mm 7 m/s 743 mmHg 71%
14:00 -2°C° 0.1 mm 8 m/s 742 mmHg 80%
15:00 -2°C° 0.4 mm 8 m/s 741 mmHg 86%
16:00 -2°C° 0.4 mm 7 m/s 741 mmHg 91%
17:00 -1°C° 0.4 mm 7 m/s 740 mmHg 96%
18:00 -1°C° 0.9 mm 7 m/s 739 mmHg 95%
19:00 0°C° 0.9 mm 7 m/s 738 mmHg 95%
20:00 0°C° 0.9 mm 7 m/s 737 mmHg 94%
21:00 +2°C° 0.7 mm 7 m/s 737 mmHg 93%
22:00 +2°C° 0.7 mm 7 m/s 736 mmHg 93%
23:00 +3°C° 0.7 mm 7 m/s 736 mmHg 92%

12 Martie, Vineri

Timp Temperatura Precipitaţii Vânt Presiune Umiditate
00:00 +3°C° 0.2 mm 7 m/s 736 mmHg 91%
01:00 +2°C° 0.2 mm 6 m/s 736 mmHg 89%
02:00 +2°C° 0.2 mm 6 m/s 736 mmHg 87%
03:00 +2°C° 0 mm 5 m/s 736 mmHg 87%
04:00 +1°C° 0 mm 5 m/s 737 mmHg 88%
05:00 0°C° 0 mm 5 m/s 737 mmHg 88%
06:00 0°C° 0 mm 5 m/s 737 mmHg 89%
07:00 -1°C° 0 mm 6 m/s 736 mmHg 90%
08:00 -1°C° 0 mm 6 m/s 736 mmHg 91%
09:00 +1°C° 0 mm 6 m/s 736 mmHg 87%
10:00 +2°C° 0 mm 7 m/s 736 mmHg 84%
11:00 +4°C° 0 mm 7 m/s 736 mmHg 80%
12:00 +4°C° 0.2 mm 7 m/s 736 mmHg 77%
13:00 +4°C° 0.2 mm 7 m/s 736 mmHg 73%
14:00 +5°C° 0.2 mm 7 m/s 736 mmHg 70%
15:00 +4°C° 0.1 mm 7 m/s 735 mmHg 71%
16:00 +4°C° 0.1 mm 6 m/s 735 mmHg 72%
17:00 +3°C° 0.1 mm 6 m/s 734 mmHg 73%
18:00 +3°C° 0.1 mm 7 m/s 734 mmHg 76%
19:00 +2°C° 0.1 mm 8 m/s 734 mmHg 80%
20:00 +1°C° 0.1 mm 9 m/s 734 mmHg 84%
21:00 +1°C° 0.2 mm 8 m/s 735 mmHg 86%
22:00 +1°C° 0.2 mm 8 m/s 736 mmHg 88%
23:00 +1°C° 0.2 mm 8 m/s 736 mmHg 90%
Arată mai mult

Formular de consimțământ

Meteoprog și furnizorii noștri de servicii pot stoca și accesa date personale, precum cookies, identificatori de dispozitiv sau alte tehnologii similare pe dispozitivul dumneavoastră și procesa astfel de date pentru a personaliza conținutul și reclamele, dar și pentru a oferi caracteristici de social media și pentru a analiza traficul.

  • Stocarea și/sau accesarea informațiilor pe dispozitivul dumneavoastră

    Cookies, identificatori de dispozitiv sau alte informații pot fi stocate sau accesate pe dispozitiv în scopurile indicate mai sus.

  • Reclame și conținut personalizat, evaluarea reclamelor și a conținutului, informații despre audiențe și dezvoltarea produselor

    Reclamele și conținutul pot fi personalizate pe baza unui profil. Pot fi adăugate date suplimentare pentru a personaliza mai bine reclamele și conținutul. Performanța reclamelor și conținutului poate fi măsurată. Pot fi obținute informații despre utilizatorii care au văzut reclamele și conținutul. Aceste date pot fi utilizate pentru a dezvolta sau îmbunătăți experiența utilizatorilor, sistemele și software-ul.

Dând clic pe ‘Sunt de acord’, permiteți utilizarea cookie-urilor menționate, a identificatorilor de dispozitiv, balizelor web sau altor tehnologii similare. Setările pot fi modificate din browser-ul dispozitivului dumneavoastră.

În anumite scopuri, interesele legitime pot prima asupra consimțământului. Puteți citi mai multe informații în acest sens în Politica privind Confidențialitatea Datelor și Cookie.